| time (UTC) | temp C | wind direction | speed KPH | gust KPH | rain 1hr cm | rain 24hr cm | rain mn cm | humidity % | barometer mb |
| 20260507210323 | 18 | 297 | 8.0 | 16.1 | 0.00 | 0.48 | 0.48 | 40 | 1008.1 |
| 20260507205832 | 18 | 280 | 11.3 | 17.7 | 0.00 | 0.48 | 0.48 | 39 | 1008.1 |
| 20260507205322 | 18 | 311 | 8.0 | 17.7 | 0.00 | 0.48 | 0.48 | 41 | 1007.8 |
| 20260507204832 | 18 | 313 | 3.2 | 16.1 | 0.00 | 0.48 | 0.48 | 42 | 1007.7 |
| 20260507204344 | 18 | 275 | 6.4 | 17.7 | 0.00 | 0.48 | 0.48 | 38 | 1007.7 |
| 20260507203834 | 18 | 280 | 4.8 | 14.5 | 0.00 | 0.48 | 0.48 | 40 | 1007.7 |
| 20260507203326 | 18 | 290 | 8.0 | 17.7 | 0.00 | 0.48 | 0.48 | 39 | 1007.8 |
| 20260507202817 | 18 | 360 | 11.3 | 17.7 | 0.00 | 0.48 | 0.48 | 39 | 1007.8 |
| 20260507202327 | 18 | 275 | 11.3 | 16.1 | 0.00 | 0.48 | 0.48 | 39 | 1007.9 |
| 20260507201818 | 18 | 313 | 8.0 | 14.5 | 0.00 | 0.48 | 0.48 | 41 | 1007.9 |
| 20260507201331 | 18 | 298 | 8.0 | 12.9 | 0.00 | 0.48 | 0.48 | 41 | 1007.9 |
| 20260507200842 | 18 | 326 | 9.7 | 17.7 | 0.00 | 0.48 | 0.48 | 40 | 1007.9 |
| 20260507200352 | 18 | 355 | 6.4 | 17.7 | 0.00 | 0.48 | 0.48 | 41 | 1007.9 |
| 20260507195822 | 18 | 331 | 9.7 | 22.5 | 0.00 | 0.48 | 0.48 | 41 | 1008.0 |
| 20260507195334 | 18 | 325 | 9.7 | 22.5 | 0.00 | 0.48 | 0.48 | 41 | 1008.1 |
| 20260507194824 | 18 | 334 | 4.8 | 16.1 | 0.00 | 0.48 | 0.48 | 42 | 1008.2 |
| 20260507194334 | 18 | 12 | 0.0 | 12.9 | 0.00 | 0.48 | 0.48 | 44 | 1008.2 |
| 20260507193826 | 18 | 329 | 4.8 | 9.7 | 0.00 | 0.48 | 0.48 | 43 | 1008.3 |
| 20260507193316 | 17 | 56 | 3.2 | 6.4 | 0.00 | 0.48 | 0.48 | 45 | 1008.3 |
| 20260507192828 | 17 | 296 | 0.0 | 11.3 | 0.00 | 0.48 | 0.48 | 46 | 1008.5 |
| 20260507192338 | 17 | 279 | 6.4 | 11.3 | 0.00 | 0.48 | 0.48 | 47 | 1008.5 |
| 20260507191828 | 17 | 305 | 1.6 | 9.7 | 0.00 | 0.48 | 0.48 | 46 | 1008.6 |
| 20260507191320 | 17 | 304 | 4.8 | 12.9 | 0.00 | 0.48 | 0.48 | 46 | 1008.9 |
| 20260507190827 | 17 | 322 | 4.8 | 17.7 | 0.00 | 0.48 | 0.48 | 43 | 1009.2 |
| 20260507190318 | 17 | 295 | 9.7 | 17.7 | 0.00 | 0.48 | 0.48 | 45 | 1009.0 |
| 20260507185827 | 18 | 347 | 6.4 | 14.5 | 0.00 | 0.48 | 0.48 | 46 | 1008.9 |
| 20260507185317 | 18 | 315 | 8.0 | 14.5 | 0.00 | 0.48 | 0.48 | 48 | 1008.9 |
| 20260507184826 | 17 | 261 | 11.3 | 24.1 | 0.00 | 0.48 | 0.48 | 48 | 1009.0 |
| 20260507184336 | 17 | 328 | 9.7 | 24.1 | 0.00 | 0.48 | 0.48 | 44 | 1009.0 |
| 20260507183842 | 17 | 258 | 9.7 | 16.1 | 0.00 | 0.48 | 0.48 | 46 | 1008.8 |
| 20260507183332 | 17 | 282 | 6.4 | 16.1 | 0.00 | 0.48 | 0.48 | 48 | 1008.9 |
| 20260507182823 | 17 | 24 | 3.2 | 16.1 | 0.00 | 0.48 | 0.48 | 49 | 1009.0 |
| 20260507182400 | 17 | 327 | 3.2 | 12.9 | 0.00 | 0.48 | 0.48 | 49 | 1009.1 |
| 20260507181849 | 17 | 272 | 4.8 | 16.1 | 0.00 | 0.48 | 0.48 | 49 | 1009.2 |
| 20260507181338 | 17 | 284 | 9.7 | 16.1 | 0.00 | 0.48 | 0.48 | 48 | 1009.5 |
| 20260507180827 | 17 | 294 | 9.7 | 17.7 | 0.00 | 0.48 | 0.48 | 50 | 1009.2 |
| 20260507180317 | 17 | 333 | 9.7 | 17.7 | 0.00 | 0.48 | 0.48 | 51 | 1009.4 |
| 20260507175827 | 17 | 355 | 4.8 | 12.9 | 0.00 | 0.48 | 0.48 | 54 | 1009.3 |
| 20260507175317 | 17 | 24 | 4.8 | 12.9 | 0.00 | 0.48 | 0.48 | 53 | 1009.5 |
| 20260507174827 | 16 | 253 | 4.8 | 14.5 | 0.00 | 0.48 | 0.48 | 51 | 1009.7 |
| 20260507174317 | 16 | 313 | 6.4 | 16.1 | 0.00 | 0.48 | 0.48 | 52 | 1009.8 |
| 20260507173827 | 16 | 276 | 9.7 | 14.5 | 0.00 | 0.48 | 0.48 | 55 | 1009.9 |
| 20260507173337 | 16 | 297 | 6.4 | 16.1 | 0.00 | 0.48 | 0.48 | 54 | 1009.8 |
| 20260507172826 | 16 | 327 | 1.6 | 9.7 | 0.00 | 0.48 | 0.48 | 55 | 1009.8 |
| 20260507172337 | 16 | 318 | 6.4 | 12.9 | 0.00 | 0.48 | 0.48 | 55 | 1009.9 |
| 20260507171841 | 16 | 326 | 6.4 | 14.5 | 0.00 | 0.48 | 0.48 | 58 | 1010.0 |
| 20260507171330 | 16 | 19 | 4.8 | 14.5 | 0.00 | 0.48 | 0.48 | 56 | 1010.2 |
| 20260507170817 | 16 | 323 | 6.4 | 9.7 | 0.00 | 0.48 | 0.48 | 58 | 1010.3 |
| 20260507170327 | 15 | 20 | 1.6 | 9.7 | 0.00 | 0.48 | 0.48 | 58 | 1010.3 |
| 20260507165838 | 15 | 319 | 3.2 | 17.7 | 0.00 | 0.48 | 0.48 | 59 | 1010.4 |
| 20260507165329 | 15 | 310 | 4.8 | 17.7 | 0.00 | 0.48 | 0.48 | 58 | 1010.4 |
| 20260507164819 | 15 | 355 | 6.4 | 9.7 | 0.00 | 0.48 | 0.48 | 59 | 1010.4 |
| 20260507164331 | 15 | 279 | 6.4 | 11.3 | 0.00 | 0.48 | 0.48 | 61 | 1010.6 |
| 20260507163822 | 15 | 263 | 4.8 | 11.3 | 0.00 | 0.48 | 0.48 | 59 | 1010.7 |
| 20260507163331 | 15 | 273 | 4.8 | 12.9 | 0.00 | 0.48 | 0.48 | 59 | 1010.9 |
| 20260507162841 | 15 | 299 | 6.4 | 16.1 | 0.00 | 0.48 | 0.48 | 58 | 1011.0 |
| 20260507162352 | 15 | 360 | 6.4 | 16.1 | 0.00 | 0.48 | 0.48 | 58 | 1010.8 |
| 20260507161821 | 15 | 329 | 4.8 | 11.3 | 0.00 | 0.48 | 0.48 | 61 | 1010.8 |